This is the latest recevied weather packets stored in our database for station/object OE6PLD-13. If no packets are shown the sender has not sent any weather packets the latest 10 day(s).
| Time | Temp. | Humidity | Pressure | Rain* | Wind** | Luminosity | Snow |
|---|---|---|---|---|---|---|---|
| 1778092243 | 17.22° C | 70% | 1012.4 hPa | 0.76 mm | - | 0 W/m² | - |
| 1778092059 | 17.22° C | 70% | 1012.5 hPa | 0.76 mm | - | 0 W/m² | - |
| 1778091876 | 17.22° C | 70% | 1012.5 hPa | 0.76 mm | - | 0 W/m² | - |
| 1778091693 | 17.22° C | 69% | 1012.5 hPa | 0.76 mm | - | 0 W/m² | - |
| 1778091509 | 17.78° C | 69% | 1012.4 hPa | 0.76 mm | - | 0 W/m² | - |
| 1778091326 | 17.78° C | 69% | 1012.2 hPa | 0.76 mm | - | 0 W/m² | - |
| 1778091142 | 17.78° C | 68% | 1012.3 hPa | 0.76 mm | - | 1 W/m² | - |
| 1778090959 | 17.78° C | 68% | 1012.1 hPa | 0.76 mm | - | 1 W/m² | - |
| 1778090776 | 17.78° C | 67% | 1012.1 hPa | 0.76 mm | - | 2 W/m² | - |
| 1778090593 | 17.78° C | 67% | 1012.2 hPa | 0.76 mm | - | 3 W/m² | - |
| 1778090409 | 18.33° C | 66% | 1012.4 hPa | 0.76 mm | - | 4 W/m² | - |
| 1778090226 | 18.33° C | 66% | 1012.3 hPa | 0.76 mm | - | 4 W/m² | - |
| 1778090042 | 18.33° C | 66% | 1012.3 hPa | 0.76 mm | - | 6 W/m² | - |
| 1778089859 | 18.33° C | 66% | 1012.2 hPa | 0.76 mm | - | 7 W/m² | - |
| 1778089676 | 18.33° C | 66% | 1012.1 hPa | 0.76 mm | - | 9 W/m² | - |
| 1778089492 | 18.33° C | 66% | 1012.1 hPa | 0.76 mm | - | 9 W/m² | - |
| 1778089309 | 18.89° C | 65% | 1012.3 hPa | 0.76 mm | - | 11 W/m² | - |
| 1778089125 | 18.89° C | 65% | 1012.2 hPa | 0.76 mm | - | 12 W/m² | - |
| 1778088942 | 18.89° C | 65% | 1012.2 hPa | 0.76 mm | - | 15 W/m² | - |
| 1778088759 | 18.89° C | 64% | 1012.2 hPa | 0.76 mm | - | 15 W/m² | - |
| 1778088575 | 19.44° C | 64% | 1011.9 hPa | 0.76 mm | - | 18 W/m² | - |
| 1778088392 | 19.44° C | 63% | 1012.1 hPa | 0.76 mm | - | 21 W/m² | - |
| 1778088209 | 20° C | 61% | 1012.1 hPa | 0.76 mm | - | 23 W/m² | - |
| 1778088025 | 20° C | 60% | 1012.2 hPa | 0.76 mm | - | 27 W/m² | - |
| 1778087842 | 20° C | 61% | 1012.1 hPa | 0.76 mm | - | 36 W/m² | - |
* Rain latest hour (hover to see other rain measurements)
** Current wind speed in m/s (hover to see current wind gust speed)